Погода в Кутузовке

Россия / Омская область     54°27′58″N   72°31′16″E
темп.,
°C
ветер,
м/с
пор.,
м/с
влажн.,
%
обл.,
%
осадки,
мм/ч
давл.,
гПа
погр.,
м
15 апреля, чт
чт1500:00+2з37945 0.0 102993
03:00+1з359574 0.0 102868
06:00+2зюз379516 0.0 1028102
09:00+4зюз49934 0.0 1027186
12:00+7з589434 0.0 1026216
15:00+7з589794 0.0 1025217
18:00+7з599548 0.0 1024220
21:00+4з389760 0.0 1023149
16 апреля, пт
пт1600:00+4з49895 0.0 1022125
03:00+4зюз49875 0.0 1020133
06:00+3зюз4118294 0.0 1019163
09:00+7зюз5117359 0.0 1018242
12:00+11з58665 0.0 1018385
15:00+13ссз677494 0.0 1018910
18:00+7ссв71080100 0.0 1021677
21:00+6св5972100 0.0 1023816
17 апреля, сб
сб1700:00+3св388010 0.0 1023288
03:00+1св48875 0.0 1024283
06:000всв36905 0.0 1024161
09:00+2всв227143 0.0 1024352
12:00+6сз35565 0.0 10241260
15:00+8сз574599 0.0 10231914
18:00+8сз574276 0.0 10231900
21:00+5з33605 0.0 102348
18 апреля, вс
вс1800:00+4зюз3565100 0.0 102272
03:00+3юз346998 0.0 102048
06:00+2ююз4974100 0.0 1018170
09:00+5юз61168100 0.0 1015462
12:00+9зюз7115095 0.0 10121699
15:00+9з101367100 0.4 10091535
18:00+5сз101477100 1.6 10101311
21:00−1сз10136592 0.0 10151385
19 апреля, пн
пн1900:00−4ссз10146166 0.1 10181348
03:00−5ссз9135874 0.0 10211079
06:00−6ссз811565 0.0 1023938
09:00−6ссз810455 0.0 10261078
12:00−3ссз893897 0.0 10271585
15:00−1ссз7833100 0.0 10272210
18:00−1с7833100 0.0 10282073
21:00−3ссз474237 0.0 1030272